星链-32327 (STARLINK-32327)

导读 | 豆包AI

STARLINK-32327是美国SpaceX公司星链(Starlink)星座中的一颗互联网通信卫星,于2024年10月23日由猎鹰9号火箭从美国佛罗里达州卡纳维拉尔角空间站发射升空。 该卫星被部署至近地轨道,属于SpaceX全球卫星互联网计划的一部分,旨在为全球偏远地区提供低延迟、高速宽带互联网接入服务,此次发射是SpaceX批量部署星链卫星任务中的一次,进一步扩大了星链星座的在轨规模。

基本信息
目录编号:
61641
目录名称:
STARLINK-32327
国际标识:
2024-191W
轨道中心:
EARTH
卫星名称:
星链-32327
卫星全名:
星链-32327 (STARLINK-32327)
卫星状态:
在轨 (已飞行555 天)
发射日期:
2024-10-23 UTC
国别 :
美国 (US)
星等 :
--
轨道信息
数据来源 国际轨道数据 AOE轨道数据
星历时间 2026-04-30T21:48:11+0800
13小时前
查看轨道信息
2026-04-30T07:00:00+0800
1天前
查看轨道信息
半长轴 6861.18km 6861.175km
偏心率 0.0001193 0.0002435
轨道倾角 42.999° 43.001°
近地点辐角 277.187° 295.362°
升交点赤经 221.303° 224.789°
平近点角 82.884° 268.765°
近地点 482.224km 481.367km
远地点 483.862km 484.709km
周期 94.267分钟 94.267分钟
每日圈数 15.275823 15.275838
详细信息
固有亮度:
5
最大亮度:
2.5
卫星平台:
Starlink V1.0
覆盖范围:
全球
运营商:
太空探索技术公司
运营商所在国:
美国
制造商(研发单位):
太空探索技术公司
制造商所在国:
美国
使用方式:
暂无
卫星简介
Starlink 计划是 SpaceX 推出的全球卫星互联网项目,通过发射低轨道卫星,为全球尤其是偏远地区提供高速、低延迟的互联网服务。自 2019 年起,Starlink 已部署数千颗卫星,旨在缩小全球数字鸿沟,推动互联网普及。该项目还为军事、航空等行业提供通信支持,带来广泛经济效益。
2D轨道图
3D轨道图
轨道高度分析图
轨道倾角分析图
轨道综合分析图
查看轨道综合分析图